Regional Weather Roundup
Issued by NWS Newport/Morehead, NC

Home | Current Version | Previous Version | Text Only | Print | Product List | Glossary On
Versions: 1 2 3 4 5 6 7 8 9 10 11 12 13 14 15 16 17 18 19 20 21 22 23 24 25 26 27 28 29 30 31 32 33 34 35 36 37 38 39 40 41 42 43 44 45 46 47 48 49 50
000
ASUS42 KMHX 281425
RWRMHX
WEATHER ROUNDUP FOR EASTERN NORTH CAROLINA
NATIONAL WEATHER SERVICE NEWPORT/MOREHEAD CITY NC
1000 AM EDT WED JUN 28 2017

NOTE: "FAIR" INDICATES FEW OR NO CLOUDS BELOW 12,000 FEET
WITH NO SIGNIFICANT WEATHER AND/OR OBSTRUCTIONS TO VISIBILITY

NCZ015>017-031-032-045>047-102-103-281500-
NORTH COAST

CITY           SKY/WX    TMP DP  RH WIND       PRES   REMARKS
EDENTON        SUNNY     77  56  48 E7        30.18S
ELIZABETH CITY SUNNY     76  55  48 NE12      30.18S
KITTY HAWK     SUNNY     74  60  61 NE9       30.16S
MANTEO         SUNNY     74  61  63 E15       30.17S

$$

NCZ045>047-081-094-103-104-281500-
CENTRAL COAST

CITY           SKY/WX    TMP DP  RH WIND       PRES   REMARKS
FRISCO         NOT AVBL

$$

NCZ095-097-098-100-101-281500-
SOUTHERN COAST

CITY           SKY/WX    TMP DP  RH WIND       PRES   REMARKS
BEAUFORT       SUNNY     80  60  50 NE9       30.16S
CEDAR ISLAND   NOT AVBL
JACKSONVILLE   SUNNY     79  58  48 N7        30.16F
PINEY ISLAND   SUNNY    N/A N/A N/A N13       30.16S
WILMINGTON     SUNNY     79  57  46 NE13      30.17S


$$

NCZ011>013-027>030-043-044-078>080-089-090>093-098-281500-
COASTAL PLAIN

CITY           SKY/WX    TMP DP  RH WIND       PRES   REMARKS
AHOSKIE          N/A     72  59  62 NE5       30.19R
CLINTON        SUNNY     75  60  60 NE5       30.19S
ELIZABETHTOWN  NOT AVBL
GOLDSBORO      SUNNY     75  59  57 E6        30.17S
GREENVILLE     SUNNY     77  59  53 E6        30.19S
HAVELOCK       SUNNY     79  59  50 NE7       30.17S
KENANSVILLE    SUNNY     75  59  57 NE5       30.19S
KINSTON        SUNNY     75  59  57 E6        30.19S
NEW BERN       SUNNY     74  63  68 N6        30.18S
RICHLANDS      SUNNY     77  60  55 N7        30.18S
ROCKY MOUNT    SUNNY     75  55  49 NE9       30.19S
WASHINGTON     SUNNY    N/A N/A N/A NE8       30.18S
WHITEVILLE     SUNNY     77  56  47 NE10G16   30.17S

$$

AMZ130-135-150-152-154-156-158-170-250-252-270-ANZ085-086-088-633-658-670-281500-
MARINE OBSERVATIONS

STATION/POSITION TIME  TEMP    WIND        PRES    WAVE   SWELL
                       AIR SEA DIR/SP/G            HT/PER HT/PER
                 (UTC) (F)     (DEG/KT/KT) (MB)    (FT/S) (FT/S)
CHESAPEAKE LIGHT NOT AVBL
64 E VA BEACH    1350   71 74   40/ 12/ 14 1021.6    3/ 4   2/10
DUCK             1354   71 74   30/ 14/ 16 1021.2
2 E DUCK         NOT AVBL
OREGON INLET     1354   74 75   30/ 11/ 16 1021.1
13E OREGON INLT  1348      74                N/A     2/ 3   2/ 8
HATTERAS CG      1354   77 78   20/ 11/ 13 1021.0
DIAMOND BUOY     1350   76 80   10/ 10/ 12 1020.8    2/ 7   2/ 7
CAPE LOOKOUT     1400   78      40/ 10/ 11 1021.0
BEAUFORT LAB     1354   77 77   30/  8/ 11 1020.6
30 SE NEW RVR IN 1408   77 80   50/ 10/ 14 1021.3
30 SE NEW RVR IN 1413      80                N/A     3/ 4
27 SE WRIGHTSVLE 1408   78 80   70/ 14/ 17 1021.0
5 SE WRIGHTSVLE  1408   76 79   50/ 12/ 17 1021.3
225 S CAPE HAT   1350   79 80   20/ 10/ 12 1019.1    3/ 7   2/ 7
41 SE CHARLESTON 1410   80 80   50/ 16/ 19 1019.8

$$




USA.gov is the U.S. government's official web portal to all federal, state and local government web resources and services.